Regional Weather Roundup
Issued by NWS

Home | Current Version | Previous Version | Text Only | Print | Product List | Glossary On
Versions: 1 2 3 4 5 6 7 8 9 10 11 12 13 14 15 16 17 18 19 20 21 22 23 24 25 26 27 28 29 30 31 32 33 34 35 36 37 38 39 40 41 42 43 44 45 46 47 48 49 50
000
ASUS42 KTBW 041516
RWRFL
FLORIDA REGIONAL WEATHER ROUNDUP
NATIONAL WEATHER SERVICE TAMPA BAY RUSKIN FL
1100 AM EDT SAT JUL 04 2015

NOTE: "FAIR" INDICATES FEW OR NO CLOUDS BELOW 12,000 FEET WITH NO
SIGNIFICANT WEATHER AND/OR OBSTRUCTIONS TO VISIBILITY.


FLZ001>010-012>015-112-114-115-041600-
PANHANDLE FLORIDA

CITY           SKY/WX    TMP DP  RH WIND       PRES   REMARKS
PENSACOLA      PTSUNNY   85  74  69 W13       30.09S THUNDER
PENSACOLA NAS  PTSUNNY   82  77  84 VRB5      30.09S
MILTON NAS     PTSUNNY   86  75  69 W8        30.10  HX  95
CRESTVIEW      PTSUNNY   87  74  64 W10       30.11S HX  95
DUKE FIELD     FAIR      82  74  77 SW6       30.10R
VALPARAISO     PTSUNNY   84  76  75 SW9       30.10S THUNDER
MARY ESTHER    PTSUNNY   88  73  62 SW9       30.09  HX  96
TRI COUNTY     FAIR      85  74  69 SW9       30.11S
PANAMA CITY    FAIR      87  73  62 S10       30.10R
TYNDALL AFB    MOSUNNY   87  69  55 W10       30.12R
APALACHICOLA   MOSUNNY   90  75  61 W10       30.12R HX 100

STATION/POSITION SKY/WX   TEMP    WIND        PRES    WAVE   SWELL
                          AIR SEA DIR/SP/G            HT/PER HT/PER
                          (F)     (DEG/KT/KT) (MB)    (FT/S) (FT/S)
30.1N   87.6W              84 83  230/ 12/ 12 1018.4R   2/ 4   2/ 6
29.2N   88.2W              84 85  210/ 10/ 12 1019.5R   2/ 4   2/ 6
28.8N   86.0W              84 85  200/  6/  8 1020.0R   2/ 8   2/ 8
PANAMA CITY BEAC           83 83  250/  9/ 11 1019.3R
CAPE SAN BLAS    NOT AVBL
TOWER C                    83     220/  7/  8 1020.1R
28.5N   84.5W              85 86  200/  4/  6 1020.2R   2/ 5   2/ 5

$$
FLZ011-016>038-118-127-128-134-139-239-041600-
NORTH FLORIDA

CITY           SKY/WX    TMP DP  RH WIND       PRES   REMARKS
MARIANNA       MOSUNNY   86  76  71 SW10      30.10S HX  96
TALLAHASSEE    PTSUNNY   86  74  67 SW7       30.12S
PERRY          MOSUNNY   87  73  64 S6        30.13S
CROSS CITY       N/A     84  72  67 SW3       30.12F
LAKE CITY      FAIR      86  73  66 W8        30.13S
GAINESVILLE    MOSUNNY   86  74  67 VRB3      30.13S
MAYPORT NAS    SUNNY     87  75  67 VRB5      30.13R HX  96
JACKSONVILLE   PTSUNNY   86  71  60 W8        30.12S
JAX NAS        MOSUNNY   89  72  56 W5        30.13S HX  96
JAX CRAIG      SUNNY     87  73  62 W3        30.12S
JAX CECIL      MOSUNNY   88  75  66 SW7       30.13S HX  97
FERNANDINA BEA FAIR      90  73  58 SW5       30.11S HX  98
ST AUGUSTINE   MOSUNNY   87  72  60 SW3       30.14S

STATION/POSITION SKY/WX   TEMP    WIND        PRES    WAVE   SWELL
                          AIR SEA DIR/SP/G            HT/PER HT/PER
                          (F)     (DEG/KT/KT) (MB)    (FT/S) (FT/S)
SHELL POINT                84     210/  8/  9   N/A
KEATON BEACH               84     240/  5/  6 1020.2R
CEDAR KEY                  85     220/  5/  7 1020.6R
FERNANDINA                 82 81  300/  5/ 10 1019.4S
30.7N   81.3W                 78                N/A     2/ 9
MAYPORT                    82 78  280/  8/ 10 1020.4R
31.4N   80.9W              78 78  230/  8/ 10 1019.6R   3/ 8   2/ 8
ST AUGUSTINE               75 72  130/  8/  9 1021.4R

$$
FLZ040-043>046-052-053-057-058-063-144-041600-
INTERIOR CENTRAL FLORIDA

CITY           SKY/WX    TMP DP  RH WIND       PRES   REMARKS
OCALA          SUNNY     84  72  65 S5        30.14S
THE VILLAGES     N/A    N/A N/A N/A VRB7      30.04S
LEESBURG       SUNNY     85  74  69 VRB3      30.15S
SANFORD        MOSUNNY   85  71  63 SE6       30.14S
ORLANDO EXEC   SUNNY     85  75  72 S5        30.14S
ORLANDO INTL   MOSUNNY   87  75  67 S7        30.14S HX  96
KISSIMMEE      SUNNY     84  75  74 S6        30.15S
WINTER HAVEN   SUNNY     86  74  67 S7        30.15S
LAKELAND       MOSUNNY   84  75  74 S5        30.14S
OKEECHOBEE     MOSUNNY   86  75  70 S7        30.14S HX  95

$$
FLZ041-047-054-059-064-141-147-041600-
EAST CENTRAL FLORIDA

CITY           SKY/WX    TMP DP  RH WIND       PRES   REMARKS
ORMOND BEACH   MOSUNNY   86  72  62 SW9       30.14S
DAYTONA BEACH  PTSUNNY   85  74  69 SW10      30.14S
DELAND           N/A     84  73  70 S7        30.16R
NEW SMYRNA BEA SUNNY     84  70  61 W7        30.15S
JFK SPACE CTR  SUNNY     87  72  62 SW8       30.13S
TITUSVILLE     MOSUNNY   82  73  74 E7        30.14S
CAPE CANAVERAL SUNNY     86  74  67 S7        30.13S HX  95
PATRICK AFB    SUNNY     84  75  74 E7        30.14S
MELBOURNE      MOSUNNY   85  75  72 E7        30.14R
VERO BEACH     MOSUNNY   89  74  60 E8        30.14S HX  98
FT PIERCE      MOSUNNY   88  75  65 E12       30.14R HX  97

STATION/POSITION SKY/WX   TEMP    WIND        PRES    WAVE   SWELL
                          AIR SEA DIR/SP/G            HT/PER HT/PER
                          (F)     (DEG/KT/KT) (MB)    (FT/S) (FT/S)
28.5N   80.2W              82 81     CALM     1021.0R
28.9N   78.5W              83 84  170/  8/  8 1021.4R
TRIDENT PIER               86 77   90/  3/  4 1021.1S
28.4N   80.5W                 79                N/A     2/10
27.5N   80.2W                 80                N/A     2/ 9

$$
FLZ050-056-061-142-242-148-248-149-249-151-251-155-255-
160-260-041600-
WEST CENTRAL FLORIDA

CITY           SKY/WX    TMP DP  RH WIND       PRES   REMARKS
CRYSTAL RIVER  FAIR      86  70  58 S3        30.13S
INVERNESS      FAIR     N/A N/A N/A CALM      30.14S
BROOKSVILLE    SUNNY     87  68  52 VRB7      30.14S
ZEPHYRHILLS    FAIR      86  72  62 CALM      30.14S
CLEARWATER     SUNNY     87  74  64 CALM      30.13R HX  95
TAMPA INTL     MOSUNNY   87  74  64 SW7       30.14R HX  95
TAMPA EXEC     SUNNY    N/A N/A N/A SW3       30.14R
PLANT CITY     SUNNY     88  75  66 S6        30.16R HX  97
MACDILL AFB    SUNNY     87  78  74 S5        30.14R HX  99
PETER O KNIGHT SUNNY     88  75  66 S3        30.14R HX  97
ST PETERSBURG  SUNNY     84  74  71 S6        30.12R
SARASOTA       SUNNY     87  73  62 S7        30.11S
VENICE         FAIR      88  73  62 S8        30.13S HX  96

STATION/POSITION SKY/WX   TEMP    WIND        PRES    WAVE   SWELL
                          AIR SEA DIR/SP/G            HT/PER HT/PER
                          (F)     (DEG/KT/KT) (MB)    (FT/S) (FT/S)
CEDAR KEY                  85     220/  5/  7 1020.6R
28.5N   84.5W              85 86  200/  4/  6 1020.2R   2/ 5   2/ 5
27.3N   84.2W                 87                N/A     2/ 4
CLEARWATER BEACH           83 87  140/  5/  6 1020.1R
MIDDLE TAMPA BAY                  170/  5/  7 1020.3R
VENICE                     84 88  110/  4/  7 1019.5S

$$
FLZ066-069-070-075>078-162-262-165-265-041600-
SOUTHWEST FLORIDA AND KEYS

CITY           SKY/WX    TMP DP  RH WIND       PRES   REMARKS
PUNTA GORDA    SUNNY     86  75  69 VRB6      30.14S HX  95
FT MYERS       SUNNY     85  75  72 SE7       30.13R
SOUTHWEST INTL SUNNY     85  75  72 SE8       30.13R
NAPLES         SUNNY     86  74  67 SE5       30.12R
MARCO ISLAND   SUNNY     90  72  55 SE5       30.12R HX  96
MARATHON       MOSUNNY   90  78  68 SE7       30.10R HX 104
KEY WEST NAS   MOSUNNY   89  76  65 E13       30.09S HX 100
KEY WEST INTL  SUNNY     89  78  70 SE13      30.10S HX 103

STATION/POSITION SKY/WX   TEMP    WIND        PRES    WAVE   SWELL
                          AIR SEA DIR/SP/G            HT/PER HT/PER
                          (F)     (DEG/KT/KT) (MB)    (FT/S) (FT/S)
VENICE                     84 88  110/  4/  7 1019.5S
NAPLES                        87              1020.4F
26.0N   85.6W              85 86  100/  6/  8 1019.0R   2/ 5   2/ 5
DRY TORTUGAS               85     130/ 12/ 13 1018.7R
NW FL BAY                  86     120/  9/ 11 1019.3
SAND KEY                   85     110/ 12/ 14 1019.0R
SOMBRERO KEY               85     120/ 12/ 14 1019.9R
LONG KEY                   85 87  120/ 10/ 11 1020.2R
MOLASSES REEF              84 86  120/ 13/ 14 1019.6R

$$
FLZ067-068-071>074-168-172>174-041600-
SOUTHEAST FLORIDA

CITY           SKY/WX    TMP DP  RH WIND       PRES   REMARKS
W PALM BEACH   CLOUDY    83  74  74 NE8       30.15S THUNDER
FT LAUDER-EXEC PTSUNNY   83  75  77 E12       30.13S THUNDER
FT LAUDERDALE  PTSUNNY   86  76  71 E14       30.12R HX  96
POMPANO BEACH  LGT RAIN  80  76  87 E7        30.14R
PEMBROKE PINES PTSUNNY   89  73  59 SE12      30.13S HX  97
OPA LOCKA      PTSUNNY   88  73  61 SE9       30.13R HX  95
MIAMI          MOSUNNY   88  73  61 SE9G18    30.12S HX  95
WEST KENDALL   MOSUNNY   88  75  65 SE10      30.11S HX  97
HOMESTEAD      MOSUNNY   88  74  63 E8G17     30.11S HX  96

STATION/POSITION SKY/WX   TEMP    WIND        PRES    WAVE   SWELL
                          AIR SEA DIR/SP/G            HT/PER HT/PER
                          (F)     (DEG/KT/KT) (MB)    (FT/S) (FT/S)
PORT EVERGLADES            85     130/  5/  7 1020.0R
VIRGINIA KEY               85 87  140/  8/ 12 1019.5R
LAKE WORTH                 81 85  230/  5/  6 1020.5R
SETTLEMENT POINT           84     160/  8/ 11 1021.6R

$$




USA.gov is the U.S. government's official web portal to all federal, state and local government web resources and services.